Location: Bijele Vode
(45.2833°N, 16.2000°E)
Time: 23:42:21
(UTC+00:00)

Okean 2 Rocket - Pass Details

Date: 18 September 2020
Orbit: 616 x 642 km, 82.5° (Epoch: 26 October)

Event Time Altitude Azimuth Distance (km) Brightness Sun altitude
Rises 18:02:18 0° 171° (S) 2,933 6.3 -11.7°
Reaches altitude 10° 18:04:36 10° 165° (SSE) 2,026 5.4 -12.1°
Maximum altitude 18:08:53 45° 93° (E) 876 3.4 -12.8°
Drops below altitude 10° 18:13:10 10° 21° (NNE) 2,030 5.7 -13.5°
Sets 18:15:29 0° 15° (NNE) 2,939 6.6 -13.9°
